User: anonymous   Login
Location: Molalla
(45.1473°N, 122.5770°W)
Time: 12:15:06
(UTC-08:00)
Language:

NOAA 18 - Orbit

View from above orbital plane
View from above orbital plane
View from above satellite
View from above satellite

Ground track
Ground track

The orbit data is extracted from the following two-line orbital elements,

1 28654U 05018A   19341.56019706  .00000073  00000-0  64004-4 0  9999
2 28654  99.0739  30.9140 0014958  56.9916 303.2690 14.12472294749788
Epoch (UTC): 07 December 2019 13:26:41
Eccentricity: 0.0014958
inclination: 99.0739°
perigee height: 840 km
apogee height: 862 km
right ascension of ascending node: 30.9140°
argument of perigee: 56.9916°
revolutions per day: 14.12472294
mean anomaly at epoch: 303.2690°
orbit number at epoch: 74978

The dashed part of the orbit path shows where the satellite is in the earth's shadow,  

DLR